Погода в Горячинске

Погода в Горячинске : погода сейчас, прогноз погоды и архив. Всё, что Вы хотите узнать о погоде в Горячинске!

Поиск расширенной информации на нашем сайте:

Другие новости

Новости СМИ2

Главная страница сайта

Новости сайта

02.10.2013

Напоминаем, что на нашем новом сайте вы можете получить высокодетализированные прогнозы погоды по пунктам России, СНГ и мира (включающие важные для авиации метеовеличины, такие как направление и скорость ветра, видимость, явления погоды, количество и форма облачности, нижняя и верхняя граница облачности), а также ознакомиться с разнообразными материалами по авиационной метеорологии и подборкой полезных ссылок на эту тему.

Сайт Метеоцентр.Азия посвящён разработке технологий оптимизации авиаметеорологического обслуживания, включая проектирование и перспективное создание нескольких автоматизированных авиаметеорологических систем:
- система выпуска высокодетальных прогностических карт явлений погоды для нижнего воздушного пространства по России и ближнему зарубежью;
- система верификации прогнозов TAF (выпускаемых синоптиками официальных АМСГ РФ и ближнего зарубежья) и AUTOTAF (выпускаемых сайтом Метеоцентр.Азия) - выявление ошибок, онлайн-сопоставление с фактической погодой METAR, автоматическое внесение коррективов в прогнозы при резком отклонении фактической погоды от прогноза, подсчёт оправдываемости прогнозов по элементам и в целом;
- система обработки, анализа и отображения авиаметеорологической информации для применения провайдерами метеорологической информации.

Рекомендуем: Два месяца назад я сделала инъекции ботакса www.entelia74.ru.

Погода в Горячинске - сегодня

Время (UTC), дата Ветер
(°,м/с) 
Видим.   Явления Облачность Т
(°С)
Тd
(°С)
f(%) Тe
(°С)
Pmin
(гПа)
dP
(гПа)
Po
(мм)
O2
(г/м3)
Тmin Tmax R s Состояние
почвы
03 20.03.17 260 (З) 20000 м    ясно 
-11.5 -17 64 -11  1036.4  730  308           
06 20.03.17 250 (З) 20000 м    ясно 
-7.5 -12.8 66 -10  1033.7  -1.6  728  303           
09 20.03.17 260 (З) 20000 м    ясно 
-7.1 -13 63 -10  1032.2  -1.3  727  302           
12 20.03.17 120 (ЮВ) н/о    ясно 
-11.8 -14.7 79 -12  1033.3  0.1  727  308    -6.3       
15 20.03.17 тихо ()   н/о    ясно 
-14.9 -16.4 88 -15  1034.2  0.1  728  311           
18 20.03.17 120 (ЮВ) н/о    ясно 
-16.2 -17.7 88 -16  1034.3  -0.2  727  313           
21 20.03.17 тихо ()   н/о    ясно 
-16.2 -17.9 87 -16  1034.2  0.1  727  313           
00 21.03.17 080 (В) 20000 м    1/0 верхняя 
[Ci fib]
-15.8 -17.7 85 -16  1035.2  728  313  -17.4      46  равномерный
мокрый или
старый снег
100% 
03 21.03.17 270 (З) 20000 м    3/0 верхняя 
[Ci fib]
-8.7 -14.8 61 -10  1033.9  0.4  728  304           
06 21.03.17 260 (З) 20000 м    ясно 
-6.2 -12.5 61 -8  1032.3  -0.9  728  301           
09 21.03.17 260 (З) 20000 м    ясно 
-6.2 -13.6 56 -8  1031.8  -0.5  727  301           
12 21.03.17 тихо ()   н/о    ясно 
-10.8 -13.7 79 -11  1033.1  0.2  727  306    -5.6       
15 21.03.17 тихо ()   н/о    ясно 
-13.8 -15.1 90 -14  1033.9  727  310           
18 21.03.17 110 (В) н/о    ясно 
-13.9 -15.4 88 -14  1033.6  -0.3  727  310           
21 21.03.17 130 (ЮВ) н/о    ясно 
-14.5 -16 88 -15  1033.7  727  311           
00 22.03.17 тихо ()   20000 м    ясно 
-12.3 -13.6 90 -12  1033.8  0.6  728  308  -16.1      46  равномерный
мокрый или
старый снег
100% 
03 22.03.17 260 (З) 20000 м    ясно 
-9 -13.8 68 -11  1033.5  0.4  728  305           
06 22.03.17 250 (З) 20000 м    ясно 
-7.5 -11.8 71 -9  1032.6  -0.4  728  303           
09 22.03.17 290 (З) 20000 м    ясно 
-7.2 -11.7 70 -9  1032.2  -0.3  727  302           
12 22.03.17 тихо ()   н/о    ясно 
-11 -12.5 89 -11  1034  0.8  728  307    -6.1       
15 22.03.17 120 (ЮВ) н/о    ясно 
-13.2 -14.2 92 -13  1034.9  0.3  728  310           
18 22.03.17 110 (В) н/о    ясно 
-13.7 -14.7 92 -14  1035.9  0.8  729  310           
21 22.03.17 тихо ()   н/о    ясно 
-13.9 -15.1 91 -14  1036.4  0.4  729  311           
00 23.03.17 080 (В) 20000 м    8/0 верхняя 
[Cs]
-12.8 -14.2 89 -13  1036.7  0.6  730  310  -15.1      46  равномерный
мокрый или
старый снег
100% 
03 23.03.17 290 (З) 20000 м    10/0 средняя, верхняя 
[Ac lent|Cs]
-3.2 -12 51 -3  1034.7  0.3  730  299           
Время (UTC), дата Ветер
(°,м/с) 
Видим.   Явления Облачность Т
(°С)
Тd
(°С)
f(%) Тe
(°С)
Pmin
(гПа)
dP
(гПа)
Po
(мм)
O2
(г/м3)
Тmin Tmax R s Состояние
почвы

Для получения пояснительной информации подведите курсор к названию столбца.

ПОГОДА в Горячинске - архив

Всё, что Вы хотите узнать о погоде в Горячинске - удобно и подробно!

Выберите нужную дату (начиная с 1 января 2015* года) и нажмите кнопку "Найти".
Будут отображены архивные сводки погоды по пункту Горячинск, начиная с указанной даты.


Отображать данные в формате CSV (для использования в таблицах Excel)


Внимание! Наш архив погоды предназначен исключительно для личного некоммерческого использования в познавательных целях. Если Вам необходимы официальные справки о состоянии погоды (для производственных, юридических, коммерческих и т.п. целей), обращайтесь в органы Росгидромета.

*Примечание: данная дата относится к архиву по метеостанциям СССР (Россия, СНГ, Балтия).
Архив по метеостанциям Зарубежной Европы и Азии (кроме Китая) хранится 10 дней, по другим регионам земного шара (Китай, Африка, Америка, Австралия, Океания) - 1 день.

Горячинск - район местоположения метеостанции


Название, широта, долгота, высота метеостанции:
Горячинск 53°ш. 108.3°д. 487 м над ур. моря [Российская Федерация]

Дополнительная информация

В oтличие oт бoльшинства пoгoдных сайтoв мы публикуем пoдрoбную метеoинфoрмацию в детальнoм прoфессиoнальнoм фoрмате.

Характеристики температуры и влажнoсти вoздуха измеряются на высoте 2 м в тени вдали oт зданий и деревьев.
Скoрoсть ветра измеряется на высoте 10 м (на урoвне рoста челoвека скoрoсть ветра ниже в 1.5-2 раза). Если метеoстанция нахoдится в гoрoде или в лесу, тo скoрoсть ветра занижена на 2-4 м/с пo сравнению с oткрытым местoм. Скoрoсть ветра над акватoриями крупных рек и oзёр, а также на вершинах хoлмoв на 2-5 м/с выше, чем в oбычных услoвиях.
Атмoсфернoе давление в разных тoчках местнoсти мoжет значительнo oтличаться oт давления на метеoстанции, в зависимoсти oт услoвий рельефа (при пoдъёме на 10 м давление пoнижается примернo на 1 мм рт.ст.).